Zurück zum Katalog

COSMOS 2251 DEB

AktivLEO
NORAD 34944·DEBRIS·🇷🇺 Russia

Gestartet Jun 16, 1993 von Plesetsk Cosmodrome

Loading…

Nächste Überflüge (nächste 24 Stunden)

TLE

AktuellSource: Space-Track

Epoche: Sep 14, 2026, 05:35 UTC

1 34944U 93036ADX 26257.23311179  .00000835  00000-0  35556-3 0  9997
2 34944  73.7463  94.7043 0219198 257.7768  99.8748 14.14831678679780

Verfolge COSMOS 2251 DEB in Echtzeit mit AllMySat

Download on the App Store